Weather History for Punta Gorda, FL

Change the Weather History Date:

Friday, November 2, 2012

  Actual Average Record
Temperature  
Mean Temperature 68 °F -  
Max Temperature 81 °F 80 °F 87 °F (2004)
Min Temperature 55 °F 59 °F 54 °F (2000)
Cooling Degree Days 2    
Growing Degree Days 18 (Base 50)    
Moisture  
Dew Point 56 °F    
Average Humidity 77    
Maximum Humidity 100    
Minimum Humidity 30    
Precipitation  
Precipitation 0.01 in - - ()
Sea Level Pressure  
Sea Level Pressure 30.08 in    
Wind  
Wind Speed 2 mph (North)    
Max Wind Speed 10 mph    
Max Gust Speed -    
Visibility 5 miles    
Events Fog    
Averages and records for this station are not official NWS values.
T = Trace of Precipitation, MM = Missing Value Source: NWS Daily Summary

Daily Weather History Graph

Daily Weather History Graph

Search for Another Location

Airport:

Trip Planner

Search our weather history database for the weather conditions in past years. The results will help you decide how hot, cold, wet, or windy it might be!

Date:

Astronomy

Nov. 02, 2012 Rise Set
Actual Time 7:38 AM EDT 6:43 PM EDT
Civil Twilight 7:14 AM EDT 7:07 PM EDT
Nautical Twilight 6:47 AM EDT 7:35 PM EDT
Astronomical Twilight 6:19 AM EDT 8:02 PM EDT
Moon 9:40 PM EDT (11/2) 10:47 AM EDT (11/2)
Length of Visible Light 11h 53m
Length of Day
11h 05m
Waning Gibbous, 87% of the Moon is Illuminated
Nov 2
Waning Gibbous
Nov 6
Last Quarter
Nov 13
New
Nov 20
First Quarter
Nov 28
Full

Hourly Weather History & Observations

Time (EDT) Temp. Dew Point Humidity Pressure Visibility Wind Dir Wind Speed Gust Speed Precip Events Conditions
12:53 AM 66.9 °F 64.0 °F 90% 30.06 in 10.0 mi Calm Calm - N/A   Overcast
1:53 AM 66.9 °F 64.0 °F 90% 30.06 in 10.0 mi Calm Calm - N/A   Mostly Cloudy
2:53 AM 64.0 °F 62.1 °F 93% 30.05 in 10.0 mi Calm Calm - N/A   Clear
3:15 AM 62.6 °F 60.8 °F 94% 30.05 in 1.8 mi Calm Calm - N/A   Clear
3:24 AM 62.6 °F 60.8 °F 94% 30.05 in 0.5 mi Calm Calm - N/A Fog Fog
3:53 AM 61.0 °F 60.1 °F 97% 30.05 in 0.2 mi Calm Calm - N/A Fog Fog
4:23 AM 59.0 °F 57.2 °F 94% 30.05 in 0.2 mi Calm Calm - N/A Fog Fog
4:38 AM 59.0 °F 57.2 °F 94% 30.06 in 0.2 mi Calm Calm - N/A Fog Fog
4:50 AM 60.8 °F 59.0 °F 94% 30.05 in 0.2 mi Calm Calm - N/A Fog Fog
4:53 AM 60.1 °F 59.0 °F 96% 30.06 in 0.2 mi Calm Calm - N/A Fog Fog
5:02 AM 59.0 °F 57.2 °F 94% 30.06 in 0.2 mi Calm Calm - N/A Fog Fog
5:11 AM 59.0 °F 57.2 °F 94% 30.06 in 0.2 mi Calm Calm - N/A Fog Fog
5:29 AM 57.2 °F 57.2 °F 100% 30.06 in 0.2 mi Calm Calm - N/A Fog Fog
5:53 AM 59.0 °F 57.0 °F 93% 30.07 in 0.2 mi NNE 3.5 mph - N/A Fog Fog
6:19 AM 57.2 °F 55.4 °F 94% 30.07 in 0.2 mi NE 3.5 mph - N/A Fog Fog
6:32 AM 57.2 °F 55.4 °F 94% 30.07 in 0.2 mi Calm Calm - N/A Fog Fog
6:53 AM 60.1 °F 57.9 °F 93% 30.08 in 0.5 mi ENE 3.5 mph - N/A Fog Fog
7:09 AM 59.0 °F 57.2 °F 94% 30.08 in 3.0 mi ENE 4.6 mph - N/A   Clear
7:19 AM 55.4 °F 55.4 °F 100% 30.08 in 0.2 mi ENE 4.6 mph - N/A Fog Fog
7:53 AM 59.0 °F 57.0 °F 93% 30.09 in 0.2 mi NNE 6.9 mph - 0.01 in Fog Fog
8:29 AM 60.8 °F 57.2 °F 88% 30.09 in 2.0 mi NE 3.5 mph - N/A   Mostly Cloudy
8:32 AM 60.8 °F 57.2 °F 88% 30.09 in 3.0 mi NE 3.5 mph - N/A   Scattered Clouds
8:53 AM 61.0 °F 57.9 °F 90% 30.11 in 10.0 mi ENE 4.6 mph - N/A   Clear
9:53 AM 66.9 °F 55.0 °F 66% 30.13 in 10.0 mi East 4.6 mph - N/A   Clear
10:53 AM 72.0 °F 51.1 °F 48% 30.14 in 10.0 mi ENE 4.6 mph - N/A   Clear
11:53 AM 75.0 °F 46.9 °F 37% 30.13 in 10.0 mi Calm Calm - N/A   Clear
12:53 PM 78.1 °F 46.0 °F 32% 30.11 in 10.0 mi Calm Calm - N/A   Clear
1:53 PM 79.0 °F 45.0 °F 30% 30.08 in 10.0 mi West 4.6 mph - N/A   Clear
2:53 PM 80.1 °F 46.9 °F 31% 30.07 in 10.0 mi North 4.6 mph - N/A   Clear
3:53 PM 80.1 °F 48.9 °F 34% 30.06 in 10.0 mi Variable 5.8 mph - N/A   Clear
4:53 PM 78.1 °F 51.1 °F 39% 30.06 in 10.0 mi WSW 8.1 mph - N/A   Clear
5:53 PM 75.9 °F 55.9 °F 50% 30.06 in 10.0 mi West 10.4 mph - N/A   Clear
6:53 PM 71.1 °F 53.1 °F 53% 30.07 in 10.0 mi WNW 5.8 mph - N/A   Clear
7:53 PM 68.0 °F 54.0 °F 61% 30.09 in 10.0 mi NW 6.9 mph - N/A   Clear
8:53 PM 66.9 °F 53.1 °F 61% 30.10 in 10.0 mi WNW 3.5 mph - N/A   Clear
9:53 PM 63.0 °F 55.0 °F 75% 30.11 in 10.0 mi NNW 6.9 mph - N/A   Clear
10:53 PM 63.0 °F 55.9 °F 78% 30.12 in 10.0 mi NNW 3.5 mph - N/A   Clear
11:53 PM 62.1 °F 55.9 °F 80% 30.13 in 10.0 mi NW 3.5 mph - N/A   Clear